Theta_e
321 321 320 322 324 326 327 329 330 331 336 342 344 344 346 343 341 343 344 342 339 337
321 318 321 322 323 324 328 330 332 335 335 337 342 342 341 340 339 325 324 337 328 327
316 317 321 319 322 324 326 329 330 332 334 336 330 333 330 329 324 323 323 325 325 327
316 319 319 320 320 323 323 323 323 324 329 333 328 329 331 330 324 323 320 323 324 325
316 317 317 317 315 317 317 321 319 321 322 327 330 325 327 322 322 319 319 320 322 323
310 315 314 315 314 315 314 314 318 317 315 319 326 323 323 323 321 320 319 321 321 322
309 311 313 314 314 314 314 313 313 315 316 316 323 323 323 322 320 320 321 322 322 323
310 311 312 314 314 315 313 313 315 317 317 320 323 323 321 322 321 322 322 323 324 328
307 309 308 311 314 313 312 311 315 318 320 317 322 313 311 319 321 322 320 320 322 318
305 307 308 308 312 311 309 309 311 314 318 317 317 307 308 311 323 324 322 320 316 315
303 304 306 306 309 309 309 308 310 313 314 315 317 309 305 309 321 319 319 317 316 316
302 301 303 302 306 308 308 308 311 315 314 317 317 304 306 309 319 318 319 319 319 318
300 300 300 301 303 306 310 310 311 313 317 312 315 305 304 306 320 317 316 316 316 310
299 299 301 304 304 306 307 310 309 311 315 317 317 312 302 303 317 316 314 314 314 312
Wind_Speed
7 4 4 6 8 10 12 14 17 15 13 15 19 19 19 17 13 18 17 21 15 12
3 5 6 6 7 11 14 14 16 15 17 12 13 16 16 12 11 5 11 12 2 4
6 6 4 5 9 11 13 12 15 14 16 15 5 9 12 11 5 10 7 7 12 9
6 6 4 3 6 8 12 10 11 14 16 16 10 12 13 13 17 21 11 6 9 14
6 6 5 4 4 4 6 9 9 11 15 19 13 13 14 15 14 15 12 12 9 7
7 7 6 5 3 4 6 8 8 8 11 19 12 13 10 12 14 13 11 12 13 15
8 7 7 7 5 4 4 6 6 7 12 22 18 13 14 14 14 15 14 13 18 16
11 7 7 7 7 6 4 4 6 5 6 14 18 11 12 10 12 11 13 15 14 17
16 13 10 7 8 6 6 5 4 1 3 6 5 13 4 7 6 9 5 5 4 6
18 17 13 9 7 7 6 4 5 0 2 2 3 13 6 5 3 10 13 9 9 7
20 20 14 13 9 7 5 6 5 4 5 4 6 6 4 17 12 11 10 8 7 8
19 18 15 11 14 8 5 6 6 4 3 2 6 14 21 18 14 9 9 7 7 7
18 16 15 13 13 10 10 6 4 5 4 7 6 6 9 14 9 10 6 7 8 11
17 17 13 12 7 9 11 5 5 5 3 5 4 5 10 16 8 9 6 5 5 5
Wind_Direction
277 251 265 279 294 289 280 269 271 275 266 255 245 238 233 234 227 221 221 228 215 224
273 287 291 289 297 302 295 284 272 266 270 267 251 250 263 268 274 55 23 298 134 197
251 265 272 306 304 302 301 301 295 285 283 285 237 222 209 238 140 305 318 300 299 311
239 242 258 274 304 293 303 316 318 312 298 287 239 230 218 215 222 224 178 177 243 241
229 225 216 197 233 285 290 317 316 334 336 291 246 221 211 203 194 199 169 155 156 136
252 239 240 228 255 318 319 326 313 307 350 343 255 221 209 207 189 181 170 178 154 187
255 254 251 233 221 248 273 300 310 334 336 347 304 226 198 198 191 190 185 184 190 204
296 260 252 237 237 241 231 252 279 336 1 1 288 205 199 192 175 176 188 193 209 216
300 303 280 247 236 245 242 213 259 289 8 354 328 278 223 137 178 154 180 194 215 145
285 289 294 287 240 240 232 212 262 313 65 31 340 322 100 62 220 192 208 204 172 160
273 275 279 288 266 255 218 218 218 208 156 204 197 152 188 197 184 169 176 173 172 129
274 267 260 274 294 273 229 227 226 205 120 35 319 191 202 211 178 147 138 129 110 112
275 279 280 264 269 293 271 218 208 237 158 95 337 276 190 261 140 131 138 129 137 144
274 265 271 258 249 276 270 210 182 206 125 112 259 208 173 254 131 140 139 141 149 188